Weather in Novokabanovo

Russia / Republic of Bashkortostan     55°55′05″N   53°55′20″E
temp.,
°C
wind,
m/s
gust,
m/s
humid.,
%
clouds,
%
prec.,
mm/h
press.,
hPa
HPBL,
m
8 march, mon
mon823:00−16s349788 0.1 100854
02:00−14sse4994100 0.0 1006225
05:00−11sse61195100 0.4 1002427
08:00−9sse61394100 1.3 998660
11:00−5s71295100 2.1 996852
14:00−2sw101581100 1.2 9951356
17:00−4wsw91576100 1.3 9961041
20:00−8sw513900 0.0 1000332
9 march, tue
tue923:00−12sw44920 0.0 100265
02:00−12s119388 0.0 100021
05:00−10nnw229394 0.6 100125
08:00−13w4794100 0.1 1004105
11:00−11w489251 0.1 1008326
14:00−9wsw469285 0.0 1009383
17:00−8sw249291 0.0 1010350
20:00−13sw129779 0.0 101021
10 march, wed
wed1023:00−16ene0110085 0.0 100920
02:00−14nne2396100 0.0 100822
05:00−14nne4896100 0.0 1006156
08:00−16nne71393100 0.1 1006343
11:00−18n81490100 0.1 1006381
14:00−17n91484100 0.0 1008477
17:00−16nnw91480100 0.0 1009601
20:00−18nnw81581100 0.0 1012637
11 march, thu
thu1123:00−19n71584100 0.0 1014587
02:00−22nnw6148999 0.0 1014453
05:00−24nnw5109296 0.0 1016218
08:00−26nw469575 0.0 101891
11:00−20nw479487 0.1 1018382
14:00−17wnw479196 0.0 1018406
17:00−13wnw599198 0.1 1018572
20:00−12w51193100 0.1 1018399
12 march, fri
fri1223:00−9wnw51289100 0.3 1019623
02:00−12nw51287100 0.0 1020382
05:00−15wnw5129076 0.0 1022264
08:00−16wnw51192100 0.0 1024281
11:00−13wnw598796 0.0 1026395
14:00−8wnw6118157 0.0 1026691
17:00−7w6108275 0.0 1026834
20:00−10w6128693 0.0 1027418